Rbgn^[z[y[W
メイン
   新天体発見情報
     Comet C/2017 S3 (PANSTARRS)
投稿するにはまず登録を

フラット表示 前のトピック | 次のトピック
投稿者 スレッド
佐藤裕久
投稿日時: 2017-10-5 2:15
モデレータ
登録日: 2005-6-12
居住地: 日本
投稿: 1810
オンライン
Comet C/2017 S3 (PANSTARRS)

R. J. WainscoatとR. Weryk (ハワイ大学天文学研究所)の通報によると、彼女とR. Werykは、9月
23日UT、Haleakalaにある1.8-m Pan-STARRS1望遠鏡で得た4枚のw-バンドCCD露出から彗星を発見した
(その後、以前のPan-STARRS1の観測も見つけた)。
この天体は大変かすかで東に非対称らしく、スタック画像によるこの彗星のFWHM(半値全幅)は1".25
のシーイングのとき1".75であった。
M. Micheli, Wainscoat Werykは、9月24.2日UT、WainscoatとD. WoodworthがMauna Keaにある3.6-m 
Canada-France-Hawaii Telescopeで得た画像を見ると、光度は20.9-21.3等で、コマのFWHMは、0".85
のシーイングのとき1".1であった。そして東に向かって短い尾らしいものが見える。。
小惑星センターのPCCP webpageに公表後、佐藤英貴氏(東京都文京区, iTelescope天文台,9月25.15-
25.16日UT, 60秒露出20枚のスタック, 0.51-m f/6.8 アストログラフ, Mayhill近郊, ニューメキシコ
州, 遠隔操作:弱い集光のある8" のコマがあるが尾はない。4".9の円形範囲で測定したこの彗星のw-
バンド全光度は20.8等であった)が彗星状と観測した。

発見位置は次のとおり、 

     2017 UT             R.A. (2000) Decl.       Mag.
     Aug. 17.32045   18 25 34.17   +80 16 42.3   21.8
          17.33433   18 25 31.93   +80 16 36.5   21.8
          17.34824   18 25 29.72   +80 16 30.1   22.1
          17.36213   18 25 27.35   +80 16 23.9   22.2
     Sept. 7.25160   17 51 42.92   +77 02 16.6   21.0
           7.26597   17 51 42.23   +77 02 06.7   21.8
           7.28035   17 51 41.61   +77 01 57.3   21.0
          23.24099   17 48 04.92   +73 58 18.7   21.5
          23.25214   17 48 05.04   +73 58 10.2   21.2
          23.26330   17 48 05.19   +73 58 02.1   21.3
          23.27443   17 48 05.30   +73 57 54.1   21.3
双曲線軌道要素と位置推算表は次のとおり、

Orbital elements:
    C/2017 S3 (PANSTARRS)
Epoch 2018 Aug. 30.0 TT = JDT 2458360.5
T 2018 Aug. 15.89895 TT                                 MPCW
q   0.2084636            (2000.0)            P               Q
z  -0.0003706      Peri.  255.89980     +0.21712965     -0.96410450
 +/-0.0001301      Node   171.09780     +0.20845671     +0.19875075
e   1.0000773      Incl.   99.02917     -0.95362493     -0.17607001
From 29 observations 2017 Aug. 17-Sept. 26, mean residual 0".4.

    C/2017 S3 (PANSTARRS)
Epoch 2017 Sept. 4.0 TT = JDT 2458000.5
T 2018 Aug. 15.89539 TT                                 MPCW
q   0.2083143            (2000.0)            P               Q
z  -0.0002988      Peri.  255.90802     +0.21691157     -0.96409922
 +/-0.0001301      Node   171.07756     +0.20833206     +0.19901261
e   1.0000622      Incl.   99.03428     -0.95370180     -0.17580293
From 29 observations 2017 Aug. 17-Sept. 26, mean residual 0".4.

Ephemeris:
    C/2017 S3 (PANSTARRS)
Date    TT    R. A. (2000) Decl.     Delta      r     Elong.  Phase   m1
2017 08 28    18 03 14.4 +78 46 23   5.2875  5.2950    84.9    11.0  21.9
...
2017 09 12    17 49 03.6 +76 09 51   5.0819  5.1384    87.6    11.3  21.6
...
2017 09 20    17 47 41.2 +74 37 07   4.9749  5.0539    88.8    11.5  21.5
...
2017 09 26    17 48 48.1 +73 24 49   4.8963  4.9901    89.5    11.6  21.4
2017 09 27    17 49 08.5 +73 12 35   4.8834  4.9794    89.7    11.6  21.4
2017 09 28    17 49 31.3 +73 00 19   4.8705  4.9688    89.8    11.6  21.4
...
2017 10 04    17 52 35.5 +71 45 55   4.7944  4.9044    90.4    11.8  21.3
...
2017 10 12    17 58 30.9 +70 05 16   4.6961  4.8180    91.0    12.0  21.2
...
2017 10 27    18 14 02.3 +66 55 27   4.5230  4.6540    91.4    12.3  21.0

(CBET 4432、MPEC 2017-S160)


フラット表示 前のトピック | 次のトピック

題名 投稿者 日時
 » Comet C/2017 S3 (PANSTARRS) 佐藤裕久 2017-10-5 2:15

投稿するにはまず登録を
 
© 1999-2013 Tsutomu Seki.